Temperature
2 3 3 3 3 3 3 4 4 4 4 4 4 4 4 4 5 5 5 5 5 5 5 5 5 5 5 5 5 5 5 5 5 5 5 5 5 5 5 5 5 5 5
2 2 2 2 2 3 3 3 3 3 3 3 3 3 4 4 4 4 5 5 5 5 5 5 5 5 5 5 5 5 5 5 4 4 5 5 5 5 5 5 5 5 5
1 1 2 2 2 2 2 2 3 3 3 3 3 3 3 3 4 4 4 4 4 4 4 4 4 4 4 5 5 4 4 4 4 4 4 4 4 5 5 4 4 4 4
1 1 1 1 2 2 2 2 2 2 2 3 3 3 3 3 3 3 3 4 4 4 4 4 4 4 4 4 4 4 4 4 4 4 4 4 4 4 4 4 4 4 4
1 1 1 1 1 1 1 2 2 2 2 2 2 2 2 2 3 3 3 3 3 4 4 4 4 4 4 4 4 4 4 3 3 3 3 3 3 3 4 4 3 3 3
0 0 0 0 1 1 1 1 1 1 2 1 2 2 2 2 2 2 3 3 3 3 3 3 3 3 3 3 3 3 3 3 3 3 3 3 3 3 3 3 3 3 2
-0 -0 0 0 0 0 1 1 1 1 1 1 1 1 1 1 2 2 2 2 2 2 3 3 3 3 3 3 3 3 3 3 3 3 3 3 3 3 3 3 3 3 2
-1 -1 -1 -0 -0 0 0 0 0 0 0 0 1 1 1 1 1 1 2 2 2 2 2 2 2 2 2 2 2 2 2 2 2 2 3 3 3 3 3 3 2 2 2
-1 -1 -1 -1 -1 -0 -0 -0 -0 -0 -0 -0 0 0 0 1 1 1 1 1 1 1 1 1 1 2 2 2 2 2 2 2 2 2 2 2 2 2 2 2 2 2 1
-2 -2 -1 -1 -1 -1 -1 -1 -1 -1 -1 -0 -0 -0 0 0 0 0 0 1 1 1 1 1 1 1 1 1 1 1 1 1 2 2 2 2 2 2 2 2 1 1 1
-2 -2 -2 -2 -2 -2 -1 -1 -1 -1 -1 -1 -1 -1 -1 -1 -0 -0 -0 -0 -0 -0 0 0 0 1 1 1 1 1 1 1 1 1 1 1 1 1 1 1 1 1 1
-2 -2 -2 -2 -2 -2 -2 -2 -2 -2 -1 -1 -1 -1 -1 -1 -1 -1 -1 -1 -1 -1 -0 -0 -0 0 0 0 0 0 1 1 1 1 1 1 1 1 1 1 1 1 1
-3 -3 -2 -2 -2 -2 -2 -2 -2 -2 -2 -2 -2 -2 -2 -2 -1 -1 -1 -1 -1 -1 -1 -1 -1 -0 -0 -0 -0 0 0 0 0 0 0 0 0 1 1 1 1 1 1
-3 -3 -3 -3 -3 -3 -3 -3 -3 -3 -3 -3 -3 -3 -3 -2 -2 -2 -2 -2 -1 -1 -1 -1 -1 -1 -1 -1 -1 -0 -0 -0 -0 -0 -0 0 0 0 0 0 0 0 0
-3 -3 -3 -3 -3 -3 -3 -3 -3 -3 -3 -3 -3 -3 -3 -3 -3 -3 -2 -2 -2 -2 -2 -2 -1 -1 -1 -1 -1 -1 -1 -1 -0 -0 -0 -0 -0 -0 -0 -0 -0 -0 -0
-3 -3 -3 -3 -3 -3 -3 -3 -4 -4 -4 -4 -4 -4 -3 -3 -3 -3 -3 -2 -2 -2 -2 -2 -2 -2 -2 -2 -2 -1 -1 -1 -1 -1 -1 -1 -1 -1 -1 -1 -0 -0 -1
-4 -4 -4 -4 -4 -4 -4 -4 -4 -4 -4 -4 -4 -4 -4 -3 -3 -3 -3 -2 -2 -2 -2 -2 -2 -2 -2 -2 -2 -2 -1 -1 -1 -1 -1 -1 -1 -1 -1 -1 -1 -1 -1
-4 -4 -4 -4 -4 -4 -4 -4 -4 -4 -4 -4 -4 -4 -4 -3 -3 -3 -3 -3 -3 -3 -3 -3 -2 -2 -2 -2 -2 -2 -2 -2 -2 -2 -2 -1 -1 -1 -1 -1 -1 -1 -1
-4 -4 -5 -5 -5 -5 -5 -5 -5 -5 -5 -4 -4 -4 -4 -4 -3 -3 -3 -3 -3 -3 -3 -3 -3 -3 -2 -2 -2 -2 -2 -2 -2 -2 -2 -2 -2 -2 -2 -2 -2 -2 -2
-5 -5 -5 -5 -5 -5 -5 -5 -5 -5 -5 -5 -5 -5 -5 -4 -4 -4 -4 -4 -4 -4 -4 -3 -3 -3 -3 -3 -2 -3 -2 -2 -2 -2 -2 -2 -2 -2 -2 -2 -2 -2 -2
-5 -5 -5 -5 -5 -5 -5 -5 -5 -5 -5 -5 -5 -5 -5 -5 -5 -4 -4 -4 -4 -4 -4 -4 -3 -3 -3 -3 -3 -3 -3 -3 -2 -2 -2 -2 -2 -2 -2 -2 -2 -2 -2
-5 -5 -5 -5 -5 -6 -6 -6 -6 -6 -5 -5 -5 -5 -5 -5 -5 -5 -5 -5 -4 -4 -4 -4 -4 -4 -3 -3 -3 -3 -3 -3 -3 -3 -3 -2 -2 -2 -2 -2 -2 -2 -2
-6 -6 -6 -6 -6 -6 -6 -6 -6 -6 -6 -6 -6 -6 -5 -5 -5 -5 -5 -5 -5 -4 -4 -4 -4 -4 -3 -3 -3 -3 -3 -3 -3 -3 -3 -3 -2 -2 -2 -2 -2 -2 -2
-6 -6 -6 -6 -6 -6 -6 -6 -6 -6 -6 -6 -6 -6 -6 -5 -5 -5 -5 -5 -5 -4 -4 -4 -4 -4 -4 -3 -3 -3 -3 -3 -3 -3 -3 -3 -2 -2 -2 -2 -2 -2 -2
-6 -6 -6 -6 -6 -6 -6 -6 -6 -6 -6 -6 -6 -6 -6 -6 -5 -5 -5 -5 -5 -4 -4 -4 -4 -4 -4 -4 -3 -3 -3 -3 -3 -3 -3 -3 -3 -2 -2 -2 -2 -2 -2
-7 -7 -7 -7 -7 -7 -7 -7 -6 -6 -6 -6 -6 -6 -6 -6 -6 -6 -5 -5 -5 -5 -4 -4 -4 -4 -4 -4 -4 -3 -3 -3 -3 -3 -3 -3 -3 -3 -3 -3 -3 -3 -3
Wind_Speed
3 3 4 3 3 3 3 3 3 3 3 4 4 4 4 5 5 5 6 6 6 6 6 6 7 7 6 5 5 5 5 5 6 4 3 3 4 4 3 4 5 5 6
3 3 4 3 3 3 3 3 3 3 3 4 4 4 4 5 5 5 5 6 6 6 7 6 7 6 7 6 5 6 5 5 6 6 3 3 4 4 4 4 3 4 4
3 3 3 3 3 3 4 4 3 3 3 3 3 4 4 5 5 5 5 5 5 6 6 6 7 7 7 6 6 5 5 4 5 4 3 2 2 3 3 3 3 3 3
3 3 3 4 4 4 4 4 4 3 3 3 4 4 4 4 4 4 4 4 5 5 5 6 6 7 7 7 6 6 5 4 4 4 4 3 2 3 2 2 2 2 3
4 4 4 4 4 4 4 4 4 3 3 3 3 4 4 3 3 4 4 4 4 4 5 5 6 6 7 6 5 5 5 5 4 4 4 3 3 3 3 2 3 2 3
4 4 4 4 4 4 4 4 4 3 3 3 3 3 3 3 4 4 4 4 4 5 5 5 5 5 6 7 7 7 7 6 6 5 4 5 5 4 3 3 2 2 3
4 4 4 3 3 4 4 3 3 4 3 3 3 3 3 3 4 4 4 4 4 4 4 4 3 4 5 5 6 6 6 7 7 6 6 6 5 4 4 4 4 3 4
4 4 4 4 4 4 3 4 4 3 3 3 3 3 3 3 3 3 3 3 3 3 3 4 4 4 4 5 5 5 5 4 4 5 5 6 5 5 5 4 4 3 3
4 4 4 4 4 4 4 4 4 3 3 3 3 3 3 4 3 3 3 3 2 3 3 4 4 4 4 5 5 4 3 2 1 2 3 4 4 4 4 3 2 2 2
5 5 5 4 4 4 4 4 3 3 3 3 3 3 3 4 4 4 3 2 2 2 3 3 3 4 4 4 5 4 4 3 1 1 1 2 3 4 5 4 4 4 2
5 5 5 4 4 4 4 3 3 3 3 3 3 3 3 4 4 4 4 2 2 2 2 2 2 2 2 4 4 4 4 3 2 2 2 2 2 2 2 2 3 3 3
5 5 5 5 4 3 3 3 3 2 2 3 3 3 3 3 4 4 5 4 3 2 3 3 2 1 2 2 2 3 3 3 2 2 2 2 2 2 1 2 1 2 2
4 5 5 5 4 4 3 3 3 3 2 2 2 3 4 4 4 5 5 5 4 3 2 2 2 2 1 1 1 2 2 2 2 2 2 2 2 2 1 0 1 1 2
4 4 4 4 4 4 4 3 3 3 2 2 3 3 3 4 4 4 4 3 4 3 2 2 2 1 0 1 1 1 1 2 2 2 1 1 1 1 1 0 0 0 1
4 4 4 4 4 4 4 4 4 3 3 3 3 3 3 4 5 6 5 4 3 3 3 2 1 1 1 1 1 1 0 1 1 1 1 1 0 0 0 1 0 1 1
3 4 3 3 3 3 3 4 5 4 6 6 5 5 4 5 7 6 6 6 5 4 3 1 1 1 1 0 0 0 0 0 0 1 1 1 1 1 1 1 0 0 0
3 3 3 3 3 3 3 3 4 5 5 6 6 7 6 7 7 7 6 5 4 3 2 1 1 1 1 0 0 0 0 0 0 0 0 0 1 1 1 1 1 0 0
3 3 3 2 3 3 3 3 2 3 4 4 6 7 8 7 7 7 6 4 3 3 1 1 1 1 1 0 0 0 0 0 0 0 0 0 0 1 1 1 1 1 1
3 2 3 3 3 2 2 2 2 3 3 4 4 5 7 7 7 7 6 3 2 2 3 2 2 1 1 1 1 1 0 0 0 0 0 0 1 1 1 1 1 1 1
2 3 3 2 2 2 2 2 2 2 3 3 4 4 5 5 4 5 5 4 3 3 3 3 2 2 1 1 1 1 1 1 1 0 0 0 1 1 1 2 1 1 1
2 2 3 3 2 2 2 2 2 2 2 3 3 5 7 4 4 4 4 4 4 4 3 3 3 2 2 1 1 1 1 1 1 1 1 1 1 1 1 1 1 1 1
2 2 2 2 2 2 2 2 2 2 2 3 3 4 6 4 3 4 4 4 4 4 4 3 3 3 2 1 1 1 1 1 1 1 1 1 1 1 1 1 1 1 1
1 1 2 2 2 2 2 2 2 2 2 3 3 3 3 3 4 4 4 4 4 4 4 3 3 3 3 2 2 2 1 1 1 1 1 1 1 1 1 1 1 1 1
1 1 1 1 2 2 2 2 2 2 2 2 3 3 3 4 4 4 4 4 4 4 4 4 3 4 4 4 3 3 2 2 2 1 1 1 1 1 1 1 1 1 1
1 1 1 1 1 1 1 2 2 2 2 2 3 3 3 3 4 4 4 4 4 4 5 5 4 4 4 4 4 3 3 3 2 1 0 1 1 1 1 2 2 2 2
1 1 1 1 1 1 1 1 2 2 2 3 3 3 3 3 4 4 4 4 4 4 4 5 5 5 5 4 4 3 3 3 3 2 1 1 1 1 2 2 2 2 2
Wind_Direction
320 318 311 310 306 295 281 274 270 269 265 260 257 254 256 255 254 251 244 237 235 236 230 225 226 225 225 223 223 228 232 233 241 257 269 259 238 232 239 249 250 242 242
316 312 321 320 315 307 300 295 280 269 264 260 259 256 254 254 251 251 254 245 237 235 230 227 227 225 228 226 223 227 229 232 237 248 254 244 252 234 235 253 258 255 252
315 313 316 312 312 308 301 293 288 276 273 269 264 261 261 262 259 253 253 249 245 240 236 229 229 226 230 228 227 226 230 234 234 233 246 246 260 245 229 249 256 264 267
319 311 311 312 307 301 296 289 287 283 272 270 269 266 266 264 260 259 259 252 247 245 242 237 234 230 230 229 226 225 227 226 218 219 230 236 244 259 233 235 260 273 276
323 319 315 311 307 302 299 297 293 290 286 276 272 274 275 268 258 265 261 255 250 251 246 239 235 237 238 237 228 218 215 218 216 217 221 230 240 245 236 234 253 291 286
323 318 316 314 312 306 304 302 298 293 296 295 279 276 280 277 286 289 278 263 250 245 245 241 235 235 237 235 233 225 221 219 218 220 227 228 234 246 241 238 241 272 286
320 318 318 316 312 311 309 305 303 302 304 300 299 291 287 287 298 301 290 271 259 252 250 250 241 234 233 234 230 229 236 239 229 226 230 232 231 229 230 235 238 248 262
324 325 325 327 323 317 315 313 310 308 307 301 301 307 301 297 310 318 304 270 266 268 261 255 251 237 227 229 225 227 235 235 231 232 238 242 239 234 227 232 247 261 289
336 332 327 327 326 323 320 316 315 309 309 309 305 305 310 314 323 327 315 273 271 274 267 256 257 248 224 211 211 215 228 245 269 245 259 260 257 237 223 214 219 236 272
336 329 326 327 322 320 318 316 316 319 309 313 321 322 322 324 334 331 320 280 276 278 278 267 261 260 218 201 205 209 221 233 230 214 240 251 253 231 221 219 214 222 254
332 328 328 328 325 324 322 322 327 330 333 336 335 334 332 331 334 338 334 304 278 278 276 274 269 258 229 208 216 220 215 213 214 217 232 249 251 244 252 255 245 226 235
337 335 338 340 340 336 337 338 338 338 340 339 342 342 341 338 339 343 345 336 316 278 278 281 281 286 240 227 226 205 196 205 207 210 226 244 248 256 279 289 278 265 262
344 344 347 348 352 351 350 346 343 346 348 341 342 339 338 339 344 349 347 340 328 308 296 318 325 332 277 224 181 187 205 209 203 211 227 249 262 262 268 312 347 18 5
348 349 352 355 359 0 358 353 350 348 347 340 339 333 331 337 342 344 339 334 335 332 331 347 356 350 349 111 143 178 224 207 202 212 227 241 244 243 236 271 292 360 1
356 355 356 357 357 1 3 360 352 346 339 333 328 323 325 327 334 334 329 326 326 324 326 332 343 341 6 37 41 31 56 143 167 192 203 204 208 221 280 326 302 327 327
356 355 357 358 355 356 356 359 9 0 359 355 348 341 335 336 335 331 332 337 338 333 320 300 303 306 292 293 33 29 47 89 165 193 213 206 214 235 268 331 355 211 220
354 348 349 352 352 350 350 353 354 3 12 12 7 3 358 350 349 345 342 345 349 340 314 296 293 296 292 276 105 25 344 358 56 168 197 208 215 234 205 177 175 155 219
353 351 349 347 344 345 347 347 345 345 350 359 5 7 2 357 356 356 352 358 1 355 326 311 310 310 302 292 323 337 3 17 21 243 223 229 185 194 197 182 182 182 200
348 350 353 350 346 346 345 344 346 348 351 351 354 358 359 357 360 4 3 6 358 344 339 333 322 315 316 331 334 341 345 324 299 266 243 232 233 213 199 191 191 204 212
351 353 351 347 348 353 353 353 354 355 353 350 349 346 347 352 356 356 357 354 349 341 338 337 337 336 341 350 339 336 333 319 304 284 273 256 239 214 198 198 205 213 222
337 346 355 354 352 349 347 348 348 346 343 338 336 338 342 340 341 341 343 343 341 337 335 335 337 338 338 333 316 316 310 298 285 270 267 258 238 217 205 200 207 222 209
331 344 356 355 351 346 342 341 341 337 335 332 332 336 345 347 343 341 339 338 337 336 336 334 331 332 332 320 289 281 283 278 277 274 270 264 237 211 191 177 173 192 180
337 348 355 351 351 354 352 346 338 332 329 329 331 336 342 345 343 338 337 337 338 341 342 339 337 338 343 345 330 303 271 274 269 247 231 230 224 207 185 169 163 166 159
323 331 341 342 346 348 346 343 341 336 332 332 335 337 338 338 337 335 335 335 337 341 344 346 344 347 352 356 354 348 337 328 314 272 229 209 202 182 164 152 151 155 154
338 335 332 328 327 329 334 338 338 336 335 334 334 334 334 335 334 334 336 339 341 346 350 350 350 353 358 358 359 2 3 0 356 9 68 166 169 170 153 141 142 136 131
337 336 332 327 321 322 325 329 331 331 329 328 329 329 330 330 330 332 335 341 345 347 349 351 353 356 356 360 2 5 13 20 23 21 54 115 143 137 136 130 129 128 121
Height
1448 1449 1448 1447 1447 1447 1447 1447 1447 1446 1446 1446 1446 1446 1446 1447 1447 1447 1447 1448 1448 1448 1448 1449 1450 1452 1453 1453 1453 1454 1455 1455 1454 1454 1455 1455 1456 1456 1456 1457 1457 1457 1457
1447 1447 1446 1445 1445 1444 1444 1444 1444 1444 1444 1444 1443 1443 1443 1443 1443 1443 1443 1444 1444 1444 1444 1445 1445 1447 1448 1448 1449 1450 1450 1450 1451 1449 1450 1451 1451 1452 1452 1453 1453 1453 1453
1445 1444 1443 1443 1442 1442 1442 1442 1441 1441 1440 1440 1440 1439 1439 1439 1439 1439 1439 1439 1439 1439 1440 1440 1441 1442 1443 1444 1444 1445 1445 1446 1446 1446 1446 1447 1447 1448 1448 1449 1449 1449 1449
1442 1441 1441 1440 1440 1440 1440 1439 1439 1438 1437 1437 1437 1436 1436 1436 1435 1435 1435 1435 1435 1435 1435 1436 1437 1437 1438 1439 1440 1440 1441 1441 1442 1442 1442 1443 1443 1444 1444 1444 1444 1445 1445
1440 1439 1439 1438 1438 1437 1437 1437 1436 1435 1434 1434 1433 1433 1433 1432 1432 1432 1431 1431 1431 1431 1431 1432 1432 1433 1433 1435 1435 1436 1437 1437 1438 1438 1438 1439 1439 1440 1440 1440 1440 1441 1441
1438 1438 1437 1436 1436 1435 1434 1434 1433 1432 1431 1431 1430 1430 1429 1429 1428 1428 1428 1427 1427 1427 1427 1428 1428 1429 1429 1430 1431 1432 1433 1433 1434 1434 1434 1434 1435 1436 1437 1436 1437 1437 1437
1437 1436 1435 1434 1433 1433 1432 1431 1430 1429 1428 1428 1427 1427 1426 1426 1425 1425 1425 1424 1424 1424 1423 1424 1424 1425 1426 1426 1427 1428 1429 1430 1430 1431 1431 1431 1432 1432 1433 1433 1434 1434 1434
1435 1434 1433 1432 1431 1430 1429 1429 1428 1426 1426 1425 1425 1424 1424 1423 1422 1422 1422 1421 1421 1420 1420 1420 1421 1421 1422 1423 1424 1424 1425 1426 1426 1427 1427 1428 1429 1430 1430 1431 1431 1431 1432
1433 1432 1431 1430 1429 1428 1427 1426 1425 1424 1424 1423 1423 1422 1421 1420 1419 1419 1418 1418 1417 1417 1417 1417 1417 1417 1418 1419 1421 1421 1421 1422 1423 1424 1424 1425 1426 1427 1427 1427 1427 1428 1427
1432 1430 1429 1428 1427 1426 1425 1424 1423 1422 1422 1421 1420 1419 1418 1417 1416 1416 1416 1415 1415 1415 1414 1414 1415 1415 1415 1416 1417 1418 1418 1419 1419 1420 1421 1422 1423 1423 1424 1424 1424 1425 1424
1430 1429 1428 1427 1426 1424 1423 1423 1422 1421 1420 1419 1418 1417 1416 1415 1414 1414 1414 1413 1413 1413 1412 1412 1412 1412 1412 1413 1414 1415 1415 1416 1416 1417 1418 1419 1419 1420 1420 1421 1422 1422 1422
1429 1428 1426 1425 1424 1423 1422 1421 1421 1420 1418 1417 1416 1415 1415 1414 1413 1412 1412 1412 1411 1411 1410 1410 1409 1409 1410 1411 1411 1412 1413 1413 1414 1414 1415 1415 1416 1417 1417 1418 1418 1419 1419
1428 1426 1425 1424 1423 1422 1421 1420 1419 1418 1417 1416 1415 1414 1413 1413 1412 1411 1410 1410 1409 1408 1408 1407 1407 1407 1407 1408 1408 1409 1410 1410 1411 1411 1412 1412 1414 1415 1415 1415 1416 1416 1417
1427 1425 1424 1423 1422 1422 1420 1419 1418 1417 1416 1416 1415 1414 1413 1412 1411 1410 1409 1408 1407 1407 1406 1406 1405 1405 1406 1406 1406 1406 1407 1407 1408 1409 1410 1410 1411 1412 1412 1412 1412 1413 1414
1426 1425 1424 1423 1422 1421 1420 1419 1418 1417 1417 1416 1414 1413 1412 1411 1410 1409 1408 1407 1406 1406 1405 1405 1404 1404 1404 1403 1403 1404 1404 1405 1406 1407 1408 1408 1409 1409 1410 1410 1411 1411 1412
1425 1424 1423 1422 1421 1420 1419 1418 1418 1417 1416 1415 1414 1413 1411 1411 1409 1408 1407 1406 1405 1405 1404 1403 1402 1402 1402 1402 1402 1402 1403 1403 1404 1405 1405 1406 1406 1407 1408 1408 1409 1409 1410
1425 1424 1423 1422 1421 1420 1418 1417 1416 1416 1415 1414 1413 1412 1411 1409 1408 1407 1406 1404 1404 1403 1402 1401 1401 1401 1401 1401 1401 1401 1402 1402 1403 1403 1403 1404 1404 1405 1406 1406 1407 1407 1408
1425 1424 1423 1422 1420 1419 1418 1417 1416 1415 1414 1413 1412 1411 1410 1408 1407 1406 1404 1403 1402 1401 1401 1400 1400 1400 1400 1400 1400 1400 1401 1401 1402 1402 1402 1402 1403 1404 1404 1404 1405 1406 1407
1425 1424 1423 1422 1420 1419 1418 1417 1416 1415 1414 1413 1411 1410 1409 1408 1407 1405 1404 1403 1402 1401 1400 1400 1399 1399 1399 1399 1399 1399 1400 1400 1401 1401 1401 1401 1402 1403 1403 1404 1404 1405 1406
1425 1424 1423 1422 1420 1419 1418 1417 1416 1415 1414 1413 1412 1411 1409 1407 1406 1405 1403 1402 1401 1400 1400 1399 1399 1398 1398 1398 1398 1399 1399 1399 1400 1400 1400 1401 1401 1402 1402 1402 1403 1404 1404
1424 1424 1423 1421 1420 1419 1418 1417 1416 1415 1414 1413 1412 1411 1410 1408 1406 1405 1404 1402 1401 1400 1399 1398 1398 1397 1397 1397 1398 1398 1398 1398 1399 1399 1399 1399 1400 1400 1401 1401 1402 1403 1404
1424 1423 1422 1421 1420 1419 1418 1417 1416 1415 1414 1413 1412 1411 1410 1408 1407 1405 1404 1402 1401 1400 1399 1398 1397 1397 1397 1397 1397 1397 1397 1397 1397 1398 1398 1398 1399 1399 1399 1400 1401 1402 1403
1424 1423 1422 1421 1420 1418 1417 1416 1415 1415 1414 1413 1412 1410 1409 1408 1407 1405 1404 1403 1401 1400 1399 1398 1397 1396 1396 1396 1396 1396 1396 1396 1397 1397 1397 1397 1398 1398 1399 1399 1400 1401 1402
1423 1422 1421 1420 1419 1418 1417 1416 1415 1414 1413 1412 1411 1410 1409 1408 1406 1405 1404 1403 1401 1400 1399 1398 1397 1396 1395 1395 1395 1395 1395 1396 1396 1396 1396 1397 1397 1397 1398 1399 1400 1401 1401
1422 1421 1420 1419 1418 1417 1416 1415 1414 1413 1413 1412 1411 1410 1409 1407 1406 1405 1404 1403 1401 1400 1399 1398 1397 1396 1396 1395 1395 1395 1395 1395 1395 1396 1396 1396 1397 1397 1398 1398 1399 1400 1401
1421 1420 1419 1418 1417 1417 1416 1415 1414 1413 1412 1411 1410 1409 1408 1407 1406 1405 1404 1403 1401 1400 1399 1398 1397 1396 1396 1395 1395 1395 1395 1395 1395 1395 1396 1396 1396 1397 1398 1398 1400 1400 1401